Weather History for Coatesville, PA

Change the Weather History Date:

Thursday, April 11, 2013

  Actual Average (KLNS) Record (KLNS)
Temperature  
Mean Temperature 63 °F -  
Max Temperature 75 °F 59 °F 84 °F (2011)
Min Temperature 50 °F 36 °F 24 °F (2007)
Degree Days  
Heating Degree Days 2    
Growing Degree Days 13 (Base 50)    
Moisture  
Dew Point 56 °F    
Average Humidity 81    
Maximum Humidity 100    
Minimum Humidity 60    
Precipitation  
Precipitation 0.00 in - - ()
Sea Level Pressure  
Sea Level Pressure 29.90 in    
Wind  
Wind Speed 5 mph (East)    
Max Wind Speed 22 mph    
Max Gust Speed 32 mph    
Visibility 9 miles    
Events      
Averages and records for this station are not official NWS values.
T = Trace of Precipitation, MM = Missing Value Source: NWS Daily Summary

Daily Weather History Graph

Daily Weather History Graph

Search for Another Location

Airport:

Trip Planner

Search our weather history database for the weather conditions in past years. The results will help you decide how hot, cold, wet, or windy it might be!

Date:

Astronomy

Apr. 11, 2013 Rise Set
Actual Time 6:31 AM EDT 7:38 PM EDT
Civil Twilight 6:03 AM EDT 8:05 PM EDT
Nautical Twilight 5:30 AM EDT 8:39 PM EDT
Astronomical Twilight 4:55 AM EDT 9:13 PM EDT
Moon 7:01 AM EDT (4/11) 9:10 PM EDT (4/11)
Length of Visible Light 14h 02m
Length of Day
13h 06m
New Moon, 2% of the Moon is Illuminated
Apr 11
New Moon
Apr 18
First Quarter
Apr 25
Full
May 2
Last Quarter
May 9
New

Hourly Weather History & Observations

Time (EDT) Temp. Dew Point Humidity Pressure Visibility Wind Dir Wind Speed Gust Speed Precip Events Conditions
12:15 AM 62.6 °F 60.8 °F 94% 29.91 in 10.0 mi Calm Calm - N/A   Mostly Cloudy
12:35 AM 60.8 °F 60.8 °F 100% 29.91 in 10.0 mi Calm Calm - N/A   Partly Cloudy
12:55 AM 60.8 °F 59.0 °F 94% 29.93 in 8.0 mi WNW 3.5 mph - N/A   Partly Cloudy
1:15 AM 60.8 °F 60.8 °F 100% 29.93 in 8.0 mi Calm Calm - N/A   Scattered Clouds
1:55 AM 60.8 °F 60.8 °F 100% 29.87 in 1.2 mi South 4.6 mph - N/A   Clear
2:15 AM 60.8 °F 60.8 °F 100% 29.85 in 3.0 mi South 4.6 mph - N/A   Clear
2:35 AM 60.8 °F 60.8 °F 100% 29.84 in 10.0 mi South 3.5 mph - N/A   Clear
2:55 AM 60.8 °F 60.8 °F 100% 29.84 in 10.0 mi South 4.6 mph - N/A   Clear
3:15 AM 60.8 °F 59.0 °F 94% 29.84 in 10.0 mi Calm Calm - N/A   Clear
3:35 AM 60.8 °F 59.0 °F 94% 29.85 in 10.0 mi Calm Calm - N/A   Clear
3:55 AM 60.8 °F 57.2 °F 88% 29.85 in 10.0 mi WSW 3.5 mph - N/A   Clear
4:15 AM 60.8 °F 57.2 °F 88% 29.86 in 10.0 mi Calm Calm - N/A   Clear
4:35 AM 60.8 °F 57.2 °F 88% 29.88 in 10.0 mi Calm Calm - N/A   Clear
4:55 AM 60.8 °F 57.2 °F 88% 29.88 in 10.0 mi Calm Calm - N/A   Clear
5:15 AM 57.2 °F 57.2 °F 100% 29.88 in 9.0 mi Calm Calm - N/A   Clear
5:35 AM 59.0 °F 57.2 °F 94% 29.89 in 10.0 mi Calm Calm - N/A   Clear
5:55 AM 59.0 °F 57.2 °F 94% 29.90 in 10.0 mi WNW 3.5 mph - N/A   Clear
6:15 AM 57.2 °F 57.2 °F 100% 29.91 in 9.0 mi Calm Calm - N/A   Clear
6:35 AM 57.2 °F 57.2 °F 100% 29.91 in 6.0 mi Calm Calm - N/A   Clear
6:55 AM 57.2 °F 57.2 °F 100% 29.91 in 8.0 mi Calm Calm - N/A   Clear
7:15 AM 59.0 °F 57.2 °F 94% 29.91 in 9.0 mi Calm Calm - N/A   Clear
7:35 AM 60.8 °F 57.2 °F 88% 29.91 in 10.0 mi Calm Calm - N/A   Clear
7:55 AM 62.6 °F 59.0 °F 88% 29.91 in 9.0 mi Calm Calm - N/A   Clear
8:15 AM 60.8 °F 59.0 °F 94% 29.91 in 9.0 mi Calm Calm - N/A   Clear
8:35 AM 62.6 °F 59.0 °F 88% 29.91 in 10.0 mi Calm Calm - N/A   Clear
8:55 AM 64.4 °F 59.0 °F 83% 29.90 in 10.0 mi Calm Calm - N/A   Clear
9:35 AM 66.2 °F 60.8 °F 83% 29.91 in 10.0 mi Calm Calm - N/A   Clear
9:55 AM 68.0 °F 60.8 °F 78% 29.91 in 10.0 mi SE 3.5 mph - N/A   Clear
10:15 AM 69.8 °F 57.2 °F 64% 29.91 in 10.0 mi North 4.6 mph - N/A   Partly Cloudy
10:35 AM 71.6 °F 57.2 °F 60% 29.92 in 10.0 mi Calm Calm - N/A   Scattered Clouds
10:55 AM 71.6 °F 57.2 °F 60% 29.92 in 10.0 mi Calm Calm - N/A   Mostly Cloudy
11:15 AM 71.6 °F 60.8 °F 69% 29.93 in 10.0 mi ENE 5.8 mph - N/A   Overcast
11:35 AM 71.6 °F 60.8 °F 69% 29.92 in 10.0 mi East 6.9 mph - N/A   Overcast
11:55 AM 71.6 °F 60.8 °F 69% 29.92 in 10.0 mi Calm Calm - N/A   Scattered Clouds
12:15 PM 73.4 °F 60.8 °F 65% 29.91 in 10.0 mi East 6.9 mph - N/A   Mostly Cloudy
12:35 PM 73.4 °F 60.8 °F 65% 29.91 in 10.0 mi ENE 3.5 mph - N/A   Partly Cloudy
12:55 PM 73.4 °F 60.8 °F 65% 29.91 in 10.0 mi East 8.1 mph - N/A   Partly Cloudy
1:15 PM 73.4 °F 60.8 °F 65% 29.90 in 10.0 mi ENE 6.9 mph - N/A   Partly Cloudy
1:35 PM 73.4 °F 60.8 °F 65% 29.89 in 10.0 mi East 9.2 mph 16.1 mph N/A   Partly Cloudy
1:55 PM 75.2 °F 60.8 °F 61% 29.88 in 10.0 mi East 13.8 mph 21.9 mph N/A   Clear
2:15 PM 73.4 °F 62.6 °F 69% 29.88 in 10.0 mi East 20.7 mph 26.5 mph N/A   Clear
2:35 PM 73.4 °F 60.8 °F 65% 29.88 in 10.0 mi East 12.7 mph 23.0 mph N/A   Partly Cloudy
2:55 PM 73.4 °F 60.8 °F 65% 29.87 in 10.0 mi East 17.3 mph 24.2 mph N/A   Clear
3:15 PM 71.6 °F 60.8 °F 69% 29.87 in 10.0 mi East 15.0 mph 26.5 mph N/A   Clear
3:35 PM 71.6 °F 60.8 °F 69% 29.87 in 9.0 mi ENE 15.0 mph 24.2 mph N/A   Clear
3:55 PM 69.8 °F 57.2 °F 64% 29.87 in 10.0 mi East 18.4 mph 27.6 mph N/A   Clear
4:15 PM 69.8 °F 57.2 °F 64% 29.87 in 10.0 mi East 16.1 mph 23.0 mph N/A   Clear
4:35 PM 68.0 °F 57.2 °F 68% 29.87 in 9.0 mi East 16.1 mph 24.2 mph N/A   Clear
4:55 PM 66.2 °F 55.4 °F 68% 29.87 in 10.0 mi East 18.4 mph 27.6 mph N/A   Clear
5:15 PM 64.4 °F 55.4 °F 73% 29.88 in 9.0 mi East 20.7 mph 28.8 mph N/A   Partly Cloudy
5:35 PM 64.4 °F 55.4 °F 73% 29.89 in 8.0 mi East 15.0 mph 26.5 mph N/A   Mostly Cloudy
5:55 PM 62.6 °F 55.4 °F 77% 29.89 in 7.0 mi East 17.3 mph 28.8 mph N/A   Overcast
6:15 PM 60.8 °F 53.6 °F 77% 29.89 in 7.0 mi ESE 11.5 mph 27.6 mph N/A   Overcast
6:35 PM 59.0 °F 53.6 °F 82% 29.89 in 9.0 mi ESE 18.4 mph 24.2 mph N/A   Overcast
6:55 PM 59.0 °F 51.8 °F 77% 29.90 in 10.0 mi East 16.1 mph 26.5 mph N/A   Overcast
7:15 PM 55.4 °F 51.8 °F 88% 29.90 in 10.0 mi ESE 12.7 mph 27.6 mph N/A   Overcast
7:35 PM 55.4 °F 50.0 °F 82% 29.90 in 10.0 mi East 13.8 mph 26.5 mph N/A   Overcast
7:55 PM 53.6 °F 48.2 °F 82% 29.90 in 10.0 mi East 18.4 mph 23.0 mph N/A   Mostly Cloudy
8:15 PM 53.6 °F 48.2 °F 82% 29.90 in 10.0 mi ESE 15.0 mph 25.3 mph N/A   Mostly Cloudy
8:35 PM 53.6 °F 48.2 °F 82% 29.91 in 10.0 mi ESE 15.0 mph 20.7 mph N/A   Overcast
8:55 PM 53.6 °F 46.4 °F 77% 29.92 in 10.0 mi ESE 16.1 mph 24.2 mph N/A   Mostly Cloudy
9:15 PM 53.6 °F 46.4 °F 77% 29.93 in 10.0 mi East 18.4 mph 28.8 mph N/A   Mostly Cloudy
9:55 PM 51.8 °F 46.4 °F 82% 29.93 in 10.0 mi East 19.6 mph 32.2 mph N/A   Overcast
10:15 PM 51.8 °F 46.4 °F 82% 29.93 in 10.0 mi East 17.3 mph 31.1 mph N/A   Overcast
10:35 PM 51.8 °F 46.4 °F 82% 29.92 in 10.0 mi East 21.9 mph 28.8 mph N/A   Overcast
10:55 PM 51.8 °F 46.4 °F 82% 29.93 in 10.0 mi East 15.0 mph 28.8 mph N/A   Overcast
11:15 PM 51.8 °F 46.4 °F 82% 29.92 in 10.0 mi East 16.1 mph 26.5 mph N/A   Overcast
11:35 PM 51.8 °F 46.4 °F 82% 29.92 in 10.0 mi East 11.5 mph 24.2 mph N/A   Overcast
11:55 PM 50.0 °F 46.4 °F 87% 29.92 in 10.0 mi East 19.6 mph 27.6 mph N/A   Overcast